Time,TemperatureF,DewpointF,PressureIn,WindDirection,WindDirectionDegrees,WindSpeedMPH,WindSpeedGustMPH,Humidity,HourlyPrecipIn,Conditions,Clouds,dailyrainin,SoftwareType,DateUTC
2013-01-17 00:01:00,37.6,15.5,30.19,WSW,251,4.0,5.0,40,0.00,,---,0.00,VWS V14.00,2013-01-17 07:01:00,
2013-01-17 00:06:00,37.6,15.5,30.19,WSW,252,3.0,6.0,40,0.00,,---,0.00,VWS V14.00,2013-01-17 07:06:00,
2013-01-17 00:12:00,37.8,15.7,30.19,WSW,256,3.0,6.0,40,0.00,,---,0.00,VWS V14.00,2013-01-17 07:12:00,
2013-01-17 00:17:00,37.9,15.8,30.20,WSW,257,4.0,5.0,40,0.00,,---,0.00,VWS V14.00,2013-01-17 07:17:00,
2013-01-17 00:22:00,37.9,15.8,30.19,WSW,257,3.0,5.0,40,0.00,,---,0.00,VWS V14.00,2013-01-17 07:22:00,
2013-01-17 00:27:00,37.8,15.7,30.20,West,269,5.0,6.0,40,0.00,,---,0.00,VWS V14.00,2013-01-17 07:27:00,
2013-01-17 00:32:00,37.3,15.8,30.20,West,273,4.0,8.0,41,0.00,,---,0.00,VWS V14.00,2013-01-17 07:32:00,
2013-01-17 00:37:00,37.2,15.1,30.20,West,274,6.0,6.0,40,0.00,,---,0.00,VWS V14.00,2013-01-17 07:37:00,
2013-01-17 00:42:00,36.6,15.7,30.20,West,276,4.0,7.0,42,0.00,,---,0.00,VWS V14.00,2013-01-17 07:42:00,
2013-01-17 00:47:00,36.3,15.4,30.20,West,279,0.0,4.0,42,0.00,,---,0.00,VWS V14.00,2013-01-17 07:47:00,
2013-01-17 00:53:00,36.2,15.3,30.20,West,279,0.0,4.0,42,0.00,,---,0.00,VWS V14.00,2013-01-17 07:53:00,
2013-01-17 00:58:00,35.9,15.6,30.20,West,279,2.0,4.0,43,0.00,,---,0.00,VWS V14.00,2013-01-17 07:58:00,
2013-01-17 01:03:00,36.1,15.2,30.20,SW,229,2.0,5.0,42,0.00,,---,0.00,VWS V14.00,2013-01-17 08:03:00,
2013-01-17 01:08:00,36.0,15.7,30.20,SW,232,0.0,4.0,43,0.00,,---,0.00,VWS V14.00,2013-01-17 08:08:00,
2013-01-17 01:13:00,35.3,15.1,30.20,SW,232,0.0,4.0,43,0.00,,---,0.00,VWS V14.00,2013-01-17 08:13:00,
2013-01-17 01:18:00,35.3,15.1,30.20,SW,232,0.0,1.0,43,0.00,,---,0.00,VWS V14.00,2013-01-17 08:18:00,
2013-01-17 01:23:00,34.9,15.2,30.21,SW,232,0.0,1.0,44,0.00,,---,0.00,VWS V14.00,2013-01-17 08:23:00,
2013-01-17 01:28:00,34.7,15.6,30.20,SW,232,0.0,0.0,45,0.00,,---,0.00,VWS V14.00,2013-01-17 08:28:00,
2013-01-17 01:33:00,34.9,15.7,30.20,SW,232,0.0,1.0,45,0.00,,---,0.00,VWS V14.00,2013-01-17 08:33:00,
2013-01-17 01:38:00,34.7,15.6,30.21,SW,232,0.0,1.0,45,0.00,,---,0.00,VWS V14.00,2013-01-17 08:38:00,
2013-01-17 01:43:00,34.6,15.5,30.21,SW,232,0.0,4.0,45,0.00,,---,0.00,VWS V14.00,2013-01-17 08:43:00,
2013-01-17 01:49:00,34.7,15.6,30.21,SW,232,1.0,3.0,45,0.00,,---,0.00,VWS V14.00,2013-01-17 08:49:00,
2013-01-17 01:54:00,34.5,15.4,30.21,SW,232,0.0,3.0,45,0.00,,---,0.00,VWS V14.00,2013-01-17 08:54:00,
2013-01-17 01:59:00,33.8,15.2,30.21,SW,232,0.0,0.0,46,0.00,,---,0.00,VWS V14.00,2013-01-17 08:59:00,
2013-01-17 02:04:00,33.0,15.0,30.21,SW,232,2.0,3.0,47,0.00,,---,0.00,VWS V14.00,2013-01-17 09:04:00,
2013-01-17 02:09:00,33.2,15.2,30.22,SW,233,0.0,4.0,47,0.00,,---,0.00,VWS V14.00,2013-01-17 09:09:00,
2013-01-17 02:14:00,32.8,15.3,30.22,SW,233,0.0,4.0,48,0.00,,---,0.00,VWS V14.00,2013-01-17 09:14:00,
2013-01-17 02:19:00,32.2,15.2,30.22,SW,233,0.0,0.0,49,0.00,,---,0.00,VWS V14.00,2013-01-17 09:19:00,
2013-01-17 02:24:00,31.8,14.8,30.22,SW,233,0.0,2.0,49,0.00,,---,0.00,VWS V14.00,2013-01-17 09:24:00,
2013-01-17 02:29:00,31.4,14.9,30.22,SW,233,0.0,1.0,50,0.00,,---,0.00,VWS V14.00,2013-01-17 09:29:00,
2013-01-17 02:34:00,31.2,14.7,30.22,SW,233,0.0,1.0,50,0.00,,---,0.00,VWS V14.00,2013-01-17 09:34:00,
2013-01-17 02:40:00,30.9,14.9,30.22,SW,233,0.0,0.0,51,0.00,,---,0.00,VWS V14.00,2013-01-17 09:40:00,
2013-01-17 02:45:00,31.9,15.4,30.22,SW,233,0.0,2.0,50,0.00,,---,0.00,VWS V14.00,2013-01-17 09:45:00,
2013-01-17 02:50:00,31.8,14.8,30.23,SW,233,0.0,0.0,49,0.00,,---,0.00,VWS V14.00,2013-01-17 09:50:00,
2013-01-17 02:55:00,31.7,14.7,30.23,SW,233,0.0,0.0,49,0.00,,---,0.00,VWS V14.00,2013-01-17 09:55:00,
2013-01-17 03:00:00,31.6,14.6,30.23,SW,233,0.0,1.0,49,0.00,,---,0.00,VWS V14.00,2013-01-17 10:00:00,
2013-01-17 03:05:00,31.9,14.9,30.23,SW,233,1.0,3.0,49,0.00,,---,0.00,VWS V14.00,2013-01-17 10:05:00,
2013-01-17 03:10:00,31.9,14.9,30.23,SW,233,0.0,1.0,49,0.00,,---,0.00,VWS V14.00,2013-01-17 10:10:00,
2013-01-17 03:15:00,31.7,14.7,30.23,SW,235,0.0,3.0,49,0.00,,---,0.00,VWS V14.00,2013-01-17 10:15:00,
2013-01-17 03:20:00,31.6,15.1,30.22,West,265,3.0,5.0,50,0.00,,---,0.00,VWS V14.00,2013-01-17 10:20:00,
2013-01-17 03:25:00,31.6,15.1,30.22,West,266,0.0,0.0,50,0.00,,---,0.00,VWS V14.00,2013-01-17 10:25:00,
2013-01-17 03:31:00,31.3,14.8,30.22,West,266,0.0,0.0,50,0.00,,---,0.00,VWS V14.00,2013-01-17 10:31:00,
2013-01-17 03:36:00,31.1,15.1,30.23,West,266,0.0,0.0,51,0.00,,---,0.00,VWS V14.00,2013-01-17 10:36:00,
2013-01-17 03:41:00,31.0,15.0,30.22,West,266,3.0,3.0,51,0.00,,---,0.00,VWS V14.00,2013-01-17 10:41:00,
2013-01-17 03:46:00,31.1,15.1,30.22,West,279,2.0,3.0,51,0.00,,---,0.00,VWS V14.00,2013-01-17 10:46:00,
2013-01-17 03:51:00,32.1,15.1,30.22,West,279,0.0,3.0,49,0.00,,---,0.00,VWS V14.00,2013-01-17 10:51:00,
2013-01-17 03:56:00,32.3,15.3,30.22,West,279,0.0,0.0,49,0.00,,---,0.00,VWS V14.00,2013-01-17 10:56:00,
2013-01-17 04:01:00,31.6,14.6,30.22,West,279,0.0,0.0,49,0.00,,---,0.00,VWS V14.00,2013-01-17 11:01:00,
2013-01-17 04:06:00,31.0,14.6,30.22,West,279,0.0,0.0,50,0.00,,---,0.00,VWS V14.00,2013-01-17 11:06:00,
2013-01-17 04:11:00,30.3,14.4,30.22,West,279,0.0,2.0,51,0.00,,---,0.00,VWS V14.00,2013-01-17 11:11:00,
2013-01-17 04:17:00,29.8,14.8,30.23,West,279,0.0,0.0,53,0.00,,---,0.00,VWS V14.00,2013-01-17 11:17:00,
2013-01-17 04:22:00,29.6,14.6,30.23,West,279,0.0,0.0,53,0.00,,---,0.00,VWS V14.00,2013-01-17 11:22:00,
2013-01-17 04:27:00,29.1,14.5,30.22,West,279,0.0,0.0,54,0.00,,---,0.00,VWS V14.00,2013-01-17 11:27:00,
2013-01-17 04:32:00,29.4,14.4,30.22,West,279,0.0,0.0,53,0.00,,---,0.00,VWS V14.00,2013-01-17 11:32:00,
2013-01-17 04:37:00,29.5,14.5,30.23,West,279,0.0,0.0,53,0.00,,---,0.00,VWS V14.00,2013-01-17 11:37:00,
2013-01-17 04:42:00,29.6,14.6,30.23,West,279,0.0,0.0,53,0.00,,---,0.00,VWS V14.00,2013-01-17 11:42:00,
2013-01-17 04:47:00,30.0,14.5,30.23,West,279,0.0,0.0,52,0.00,,---,0.00,VWS V14.00,2013-01-17 11:47:00,
2013-01-17 04:52:00,30.2,14.7,30.22,West,279,0.0,0.0,52,0.00,,---,0.00,VWS V14.00,2013-01-17 11:52:00,
2013-01-17 04:57:00,30.1,14.2,30.22,West,279,0.0,0.0,51,0.00,,---,0.00,VWS V14.00,2013-01-17 11:57:00,
2013-01-17 05:02:00,30.1,14.6,30.22,West,279,0.0,2.0,52,0.00,,---,0.00,VWS V14.00,2013-01-17 12:02:00,
2013-01-17 05:08:00,30.2,14.7,30.22,West,279,0.0,0.0,52,0.00,,---,0.00,VWS V14.00,2013-01-17 12:08:00,
2013-01-17 05:13:00,30.1,14.2,30.22,West,279,0.0,0.0,51,0.00,,---,0.00,VWS V14.00,2013-01-17 12:13:00,
2013-01-17 05:18:00,30.0,14.1,30.22,West,279,0.0,0.0,51,0.00,,---,0.00,VWS V14.00,2013-01-17 12:18:00,
2013-01-17 05:23:00,30.2,14.3,30.23,West,279,0.0,3.0,51,0.00,,---,0.00,VWS V14.00,2013-01-17 12:23:00,
2013-01-17 05:28:00,30.9,14.9,30.23,West,279,0.0,1.0,51,0.00,,---,0.00,VWS V14.00,2013-01-17 12:28:00,
2013-01-17 05:33:00,30.8,14.4,30.23,West,279,0.0,3.0,50,0.00,,---,0.00,VWS V14.00,2013-01-17 12:33:00,
2013-01-17 05:38:00,31.7,14.3,30.23,West,279,5.0,5.0,48,0.00,,---,0.00,VWS V14.00,2013-01-17 12:38:00,
2013-01-17 05:43:00,31.1,14.2,30.23,West,279,0.0,5.0,49,0.00,,---,0.00,VWS V14.00,2013-01-17 12:43:00,
2013-01-17 05:48:00,30.5,14.1,30.23,West,279,0.0,3.0,50,0.00,,---,0.00,VWS V14.00,2013-01-17 12:48:00,
2013-01-17 05:53:00,31.3,14.4,30.23,West,279,0.0,3.0,49,0.00,,---,0.00,VWS V14.00,2013-01-17 12:53:00,
2013-01-17 05:58:00,31.1,13.7,30.23,West,279,0.0,1.0,48,0.00,,---,0.00,VWS V14.00,2013-01-17 12:58:00,
2013-01-17 06:03:00,30.7,13.8,30.23,West,279,0.0,3.0,49,0.00,,---,0.00,VWS V14.00,2013-01-17 13:03:00,
2013-01-17 06:08:00,30.4,14.4,30.24,WNW,284,5.0,7.0,51,0.00,,---,0.00,VWS V14.00,2013-01-17 13:08:00,
2013-01-17 06:13:00,31.5,15.0,30.24,WNW,291,5.0,7.0,50,0.00,,---,0.00,VWS V14.00,2013-01-17 13:13:00,
2013-01-17 06:18:00,32.3,15.3,30.24,WNW,291,7.0,8.0,49,0.00,,---,0.00,VWS V14.00,2013-01-17 13:18:00,
2013-01-17 06:23:00,32.4,14.9,30.24,WNW,294,8.0,9.0,48,0.00,,---,0.00,VWS V14.00,2013-01-17 13:23:00,
2013-01-17 06:28:00,32.5,15.0,30.24,WNW,284,7.0,8.0,48,0.00,,---,0.00,VWS V14.00,2013-01-17 13:28:00,
2013-01-17 06:34:00,32.5,14.5,30.24,West,274,5.0,8.0,47,0.00,,---,0.00,VWS V14.00,2013-01-17 13:34:00,
2013-01-17 06:39:00,32.3,14.8,30.24,WNW,284,0.0,7.0,48,0.00,,---,0.00,VWS V14.00,2013-01-17 13:39:00,
2013-01-17 06:44:00,31.6,14.2,30.23,WNW,284,0.0,7.0,48,0.00,,---,0.00,VWS V14.00,2013-01-17 13:44:00,
2013-01-17 06:49:00,31.4,14.5,30.23,WNW,284,0.0,3.0,49,0.00,,---,0.00,VWS V14.00,2013-01-17 13:49:00,
2013-01-17 06:54:00,31.4,14.5,30.24,WNW,286,0.0,6.0,49,0.00,,---,0.00,VWS V14.00,2013-01-17 13:54:00,
2013-01-17 06:59:00,31.8,14.8,30.24,WNW,284,3.0,6.0,49,0.00,,---,0.00,VWS V14.00,2013-01-17 13:59:00,
2013-01-17 07:04:00,33.1,14.6,30.24,WNW,291,4.0,6.0,46,0.00,,---,0.00,VWS V14.00,2013-01-17 14:04:00,
2013-01-17 07:09:00,32.7,14.2,30.24,WNW,291,4.0,4.0,46,0.00,,---,0.00,VWS V14.00,2013-01-17 14:09:00,
2013-01-17 07:14:00,32.2,14.2,30.24,WNW,291,0.0,4.0,47,0.00,,---,0.00,VWS V14.00,2013-01-17 14:14:00,
2013-01-17 07:19:00,32.2,14.7,30.24,WNW,291,5.0,6.0,48,0.00,,---,0.00,VWS V14.00,2013-01-17 14:19:00,
2013-01-17 07:24:00,32.5,14.5,30.24,WNW,291,0.0,6.0,47,0.00,,---,0.00,VWS V14.00,2013-01-17 14:24:00,
2013-01-17 07:29:00,31.8,14.4,30.25,WNW,291,0.0,0.0,48,0.00,,---,0.00,VWS V14.00,2013-01-17 14:29:00,
2013-01-17 07:34:00,31.4,14.5,30.25,WNW,291,0.0,0.0,49,0.00,,---,0.00,VWS V14.00,2013-01-17 14:34:00,
2013-01-17 07:39:00,31.5,14.6,30.25,WNW,291,3.0,4.0,49,0.00,,---,0.00,VWS V14.00,2013-01-17 14:39:00,
2013-01-17 07:44:00,32.5,15.5,30.26,WNW,299,0.0,5.0,49,0.00,,---,0.00,VWS V14.00,2013-01-17 14:44:00,
2013-01-17 07:50:00,33.2,15.6,30.26,NW,306,3.0,5.0,48,0.00,,---,0.00,VWS V14.00,2013-01-17 14:50:00,
2013-01-17 07:55:00,34.5,15.9,30.26,WNW,299,4.0,7.0,46,0.00,,---,0.00,VWS V14.00,2013-01-17 14:55:00,
2013-01-17 08:00:00,35.2,16.0,30.26,WNW,292,3.0,8.0,45,0.00,,---,0.00,VWS V14.00,2013-01-17 15:00:00,
2013-01-17 08:05:00,35.5,16.3,30.26,WNW,291,2.0,8.0,45,0.00,,---,0.00,VWS V14.00,2013-01-17 15:05:00,
2013-01-17 08:10:00,36.1,16.3,30.27,WNW,293,6.0,7.0,44,0.00,,---,0.00,VWS V14.00,2013-01-17 15:10:00,
2013-01-17 08:15:00,36.1,16.3,30.27,WNW,296,7.0,7.0,44,0.00,,---,0.00,VWS V14.00,2013-01-17 15:15:00,
2013-01-17 08:20:00,36.6,17.3,30.27,WNW,297,0.0,6.0,45,0.00,,---,0.00,VWS V14.00,2013-01-17 15:20:00,
2013-01-17 08:25:00,37.1,18.2,30.27,WNW,297,0.0,6.0,46,0.00,,---,0.00,VWS V14.00,2013-01-17 15:25:00,
2013-01-17 08:30:00,37.5,17.0,30.27,WNW,297,0.0,0.0,43,0.00,,---,0.00,VWS V14.00,2013-01-17 15:30:00,
2013-01-17 08:35:00,37.3,16.9,30.27,WNW,297,0.0,1.0,43,0.00,,---,0.00,VWS V14.00,2013-01-17 15:35:00,
2013-01-17 08:40:00,37.1,17.7,30.28,WNW,297,0.0,0.0,45,0.00,,---,0.00,VWS V14.00,2013-01-17 15:40:00,
2013-01-17 08:46:00,37.0,17.1,30.28,WNW,297,0.0,0.0,44,0.00,,---,0.00,VWS V14.00,2013-01-17 15:46:00,
2013-01-17 08:51:00,37.2,16.8,30.28,WNW,297,0.0,1.0,43,0.00,,---,0.00,VWS V14.00,2013-01-17 15:51:00,
2013-01-17 08:56:00,37.9,18.0,30.28,WNW,297,0.0,0.0,44,0.00,,---,0.00,VWS V14.00,2013-01-17 15:56:00,
2013-01-17 09:01:00,38.0,17.5,30.28,WNW,297,0.0,1.0,43,0.00,,---,0.00,VWS V14.00,2013-01-17 16:01:00,
2013-01-17 09:06:00,38.2,18.8,30.28,WNW,297,0.0,0.0,45,0.00,,---,0.00,VWS V14.00,2013-01-17 16:06:00,
2013-01-17 09:11:00,38.9,17.8,30.28,WNW,297,0.0,0.0,42,0.00,,---,0.00,VWS V14.00,2013-01-17 16:11:00,
2013-01-17 09:16:00,39.3,17.6,30.29,WSW,256,0.0,0.0,41,0.00,,---,0.00,VWS V14.00,2013-01-17 16:16:00,
2013-01-17 09:21:00,40.0,17.6,30.29,WSW,256,0.0,0.0,40,0.00,,---,0.00,VWS V14.00,2013-01-17 16:21:00,
2013-01-17 09:26:00,40.8,18.4,30.28,SSW,209,1.0,2.0,40,0.00,,---,0.00,VWS V14.00,2013-01-17 16:26:00,
2013-01-17 09:31:00,41.0,18.0,30.28,SSW,209,1.0,2.0,39,0.00,,---,0.00,VWS V14.00,2013-01-17 16:31:00,
2013-01-17 09:36:00,41.5,17.8,30.29,SSW,209,0.0,0.0,38,0.00,,---,0.00,VWS V14.00,2013-01-17 16:36:00,
2013-01-17 09:41:00,41.6,17.9,30.29,SSW,209,0.0,2.0,38,0.00,,---,0.00,VWS V14.00,2013-01-17 16:41:00,
2013-01-17 09:46:00,41.7,18.0,30.28,South,186,1.0,1.0,38,0.00,,---,0.00,VWS V14.00,2013-01-17 16:46:00,
2013-01-17 09:51:00,42.1,19.0,30.28,SSE,147,1.0,4.0,39,0.00,,---,0.00,VWS V14.00,2013-01-17 16:51:00,
2013-01-17 09:57:00,42.1,18.3,30.28,SSE,155,4.0,7.0,38,0.00,,---,0.00,VWS V14.00,2013-01-17 16:57:00,
2013-01-17 10:02:00,41.5,18.4,30.28,South,171,2.0,8.0,39,0.00,,---,0.00,VWS V14.00,2013-01-17 17:02:00,
2013-01-17 10:07:00,41.0,18.0,30.28,SSE,150,5.0,7.0,39,0.00,,---,0.00,VWS V14.00,2013-01-17 17:07:00,
2013-01-17 10:12:00,41.2,18.7,30.27,SSE,152,5.0,7.0,40,0.00,,---,0.00,VWS V14.00,2013-01-17 17:12:00,
2013-01-17 10:17:00,41.7,18.6,30.27,SE,128,4.0,5.0,39,0.00,,---,0.00,VWS V14.00,2013-01-17 17:17:00,
2013-01-17 10:22:00,42.2,18.4,30.27,SE,128,4.0,7.0,38,0.00,,---,0.00,VWS V14.00,2013-01-17 17:22:00,
2013-01-17 10:27:00,42.2,17.8,30.27,SE,138,5.0,5.0,37,0.00,,---,0.00,VWS V14.00,2013-01-17 17:27:00,
2013-01-17 10:32:00,42.1,17.7,30.26,SSE,163,2.0,7.0,37,0.00,,---,0.00,VWS V14.00,2013-01-17 17:32:00,
2013-01-17 10:37:00,41.7,17.4,30.26,SSE,165,5.0,7.0,37,0.00,,---,0.00,VWS V14.00,2013-01-17 17:37:00,
2013-01-17 10:42:00,41.4,17.1,30.26,SSE,159,5.0,8.0,37,0.00,,---,0.00,VWS V14.00,2013-01-17 17:42:00,
2013-01-17 10:47:00,41.4,17.7,30.26,SSE,157,6.0,8.0,38,0.00,,---,0.00,VWS V14.00,2013-01-17 17:47:00,
2013-01-17 10:52:00,42.1,18.3,30.25,SE,139,5.0,8.0,38,0.00,,---,0.00,VWS V14.00,2013-01-17 17:52:00,
2013-01-17 10:57:00,42.1,17.7,30.25,SSE,161,4.0,9.0,37,0.00,,---,0.00,VWS V14.00,2013-01-17 17:57:00,
2013-01-17 11:02:00,41.7,18.6,30.24,SSE,165,5.0,9.0,39,0.00,,---,0.00,VWS V14.00,2013-01-17 18:02:00,
2013-01-17 11:07:00,41.7,19.2,30.24,SSE,161,4.0,9.0,40,0.00,,---,0.00,VWS V14.00,2013-01-17 18:07:00,
2013-01-17 11:13:00,41.7,19.8,30.24,SSE,153,8.0,9.0,41,0.00,,---,0.00,VWS V14.00,2013-01-17 18:13:00,
2013-01-17 11:18:00,42.2,19.6,30.23,SSE,157,7.0,11.0,40,0.00,,---,0.00,VWS V14.00,2013-01-17 18:18:00,
2013-01-17 11:23:00,42.4,19.8,30.22,SE,138,7.0,12.0,40,0.00,,---,0.00,VWS V14.00,2013-01-17 18:23:00,
2013-01-17 11:28:00,42.9,20.3,30.22,SSE,153,6.0,12.0,40,0.00,,---,0.00,VWS V14.00,2013-01-17 18:28:00,
2013-01-17 11:33:00,43.4,20.1,30.22,SSE,157,6.0,12.0,39,0.00,,---,0.00,VWS V14.00,2013-01-17 18:33:00,
2013-01-17 11:38:00,43.8,19.9,30.21,SE,142,8.0,9.0,38,0.00,,---,0.00,VWS V14.00,2013-01-17 18:38:00,
2013-01-17 11:43:00,44.2,20.2,30.21,SE,143,7.0,9.0,38,0.00,,---,0.00,VWS V14.00,2013-01-17 18:43:00,
2013-01-17 11:48:00,44.7,20.0,30.20,ESE,117,6.0,11.0,37,0.00,,---,0.00,VWS V14.00,2013-01-17 18:48:00,
2013-01-17 11:53:00,45.1,20.4,30.20,SE,140,6.0,11.0,37,0.00,,---,0.00,VWS V14.00,2013-01-17 18:53:00,
2013-01-17 11:58:00,45.2,19.2,30.20,ESE,119,9.0,10.0,35,0.00,,---,0.00,VWS V14.00,2013-01-17 18:58:00,
2013-01-17 12:04:00,45.4,19.4,30.20,SE,144,7.0,11.0,35,0.00,,---,0.00,VWS V14.00,2013-01-17 19:04:00,
2013-01-17 12:09:00,45.4,19.4,30.19,SE,140,4.0,9.0,35,0.00,,---,0.00,VWS V14.00,2013-01-17 19:09:00,
2013-01-17 12:14:00,45.5,19.5,30.19,SE,125,7.0,11.0,35,0.00,,---,0.00,VWS V14.00,2013-01-17 19:14:00,
2013-01-17 12:19:00,45.7,19.0,30.19,SE,134,6.0,8.0,34,0.00,,---,0.00,VWS V14.00,2013-01-17 19:19:00,
2013-01-17 12:24:00,46.2,19.4,30.18,SE,138,8.0,8.0,34,0.00,,---,0.00,VWS V14.00,2013-01-17 19:24:00,
2013-01-17 12:29:00,46.2,18.7,30.18,SE,134,4.0,11.0,33,0.00,,---,0.00,VWS V14.00,2013-01-17 19:29:00,
2013-01-17 12:34:00,46.7,18.4,30.18,ENE,68,3.0,11.0,32,0.00,,---,0.00,VWS V14.00,2013-01-17 19:34:00,
2013-01-17 12:39:00,46.4,18.2,30.17,ESE,119,4.0,8.0,32,0.00,,---,0.00,VWS V14.00,2013-01-17 19:39:00,
2013-01-17 12:44:00,46.3,18.1,30.17,ESE,121,0.0,8.0,32,0.00,,---,0.00,VWS V14.00,2013-01-17 19:44:00,
2013-01-17 12:50:00,46.4,18.2,30.17,ENE,64,2.0,8.0,32,0.00,,---,0.00,VWS V14.00,2013-01-17 19:50:00,
2013-01-17 12:55:00,46.4,18.2,30.17,ESE,118,0.0,8.0,32,0.00,,---,0.00,VWS V14.00,2013-01-17 19:55:00,
2013-01-17 13:00:00,46.8,18.5,30.17,ESE,105,0.0,7.0,32,0.00,,---,0.00,VWS V14.00,2013-01-17 20:00:00,
2013-01-17 13:05:00,46.4,18.2,30.17,ESE,117,0.0,8.0,32,0.00,,---,0.00,VWS V14.00,2013-01-17 20:05:00,
2013-01-17 13:10:00,46.1,18.6,30.17,SE,139,6.0,7.0,33,0.00,,---,0.00,VWS V14.00,2013-01-17 20:10:00,
2013-01-17 13:15:00,45.9,18.4,30.16,ESE,113,5.0,13.0,33,0.00,,---,0.00,VWS V14.00,2013-01-17 20:15:00,
2013-01-17 13:20:00,46.4,18.9,30.16,ESE,111,0.0,6.0,33,0.00,,---,0.00,VWS V14.00,2013-01-17 20:20:00,
2013-01-17 13:25:00,47.0,18.7,30.16,ESE,103,2.0,8.0,32,0.00,,---,0.00,VWS V14.00,2013-01-17 20:25:00,
2013-01-17 13:30:00,47.3,18.2,30.16,ESE,119,5.0,6.0,31,0.00,,---,0.00,VWS V14.00,2013-01-17 20:30:00,
2013-01-17 13:35:00,46.8,17.8,30.16,SSE,153,0.0,0.0,31,0.00,,---,0.00,VWS V14.00,2013-01-17 20:35:00,
2013-01-17 13:40:00,46.8,17.8,30.16,ESE,103,1.0,6.0,31,0.00,,---,0.00,VWS V14.00,2013-01-17 20:40:00,
2013-01-17 13:46:00,47.1,18.0,30.15,SSE,147,1.0,1.0,31,0.00,,---,0.00,VWS V14.00,2013-01-17 20:46:00,
2013-01-17 13:51:00,47.1,18.0,30.15,ENE,77,0.0,9.0,31,0.00,,---,0.00,VWS V14.00,2013-01-17 20:51:00,
2013-01-17 13:56:00,47.5,19.1,30.15,SE,135,2.0,5.0,32,0.00,,---,0.00,VWS V14.00,2013-01-17 20:56:00,
2013-01-17 14:01:00,47.4,17.5,30.15,SE,132,0.0,7.0,30,0.00,,---,0.00,VWS V14.00,2013-01-17 21:01:00,
2013-01-17 14:06:00,47.4,17.5,30.15,SSE,155,5.0,5.0,30,0.00,,---,0.00,VWS V14.00,2013-01-17 21:06:00,
2013-01-17 14:11:00,47.2,18.1,30.15,SE,140,6.0,7.0,31,0.00,,---,0.00,VWS V14.00,2013-01-17 21:11:00,
2013-01-17 14:16:00,46.9,17.9,30.15,South,179,5.0,5.0,31,0.00,,---,0.00,VWS V14.00,2013-01-17 21:16:00,
2013-01-17 14:21:00,47.0,17.2,30.14,SSE,166,0.0,7.0,30,0.00,,---,0.00,VWS V14.00,2013-01-17 21:21:00,
2013-01-17 14:26:00,47.1,17.3,30.14,SSE,162,0.0,0.0,30,0.00,,---,0.00,VWS V14.00,2013-01-17 21:26:00,
2013-01-17 14:31:00,47.1,17.3,30.14,South,171,7.0,11.0,30,0.00,,---,0.00,VWS V14.00,2013-01-17 21:31:00,
2013-01-17 14:36:00,46.9,17.1,30.14,South,179,5.0,9.0,30,0.00,,---,0.00,VWS V14.00,2013-01-17 21:36:00,
2013-01-17 14:41:00,47.0,17.2,30.14,SSE,153,7.0,10.0,30,0.00,,---,0.00,VWS V14.00,2013-01-17 21:41:00,
2013-01-17 14:46:00,47.5,17.6,30.14,South,178,0.0,1.0,30,0.00,,---,0.00,VWS V14.00,2013-01-17 21:46:00,
2013-01-17 14:51:00,47.7,17.0,30.14,SSE,167,2.0,9.0,29,0.00,,---,0.00,VWS V14.00,2013-01-17 21:51:00,
2013-01-17 14:56:00,47.5,16.8,30.14,South,184,4.0,5.0,29,0.00,,---,0.00,VWS V14.00,2013-01-17 21:56:00,
2013-01-17 15:01:00,47.4,16.8,30.14,South,169,4.0,6.0,29,0.00,,---,0.00,VWS V14.00,2013-01-17 22:01:00,
2013-01-17 15:06:00,47.4,15.9,30.14,SSE,149,7.0,8.0,28,0.00,,---,0.00,VWS V14.00,2013-01-17 22:06:00,
2013-01-17 15:12:00,47.2,15.8,30.14,SSE,149,5.0,8.0,28,0.00,,---,0.00,VWS V14.00,2013-01-17 22:12:00,
2013-01-17 15:17:00,46.9,15.5,30.14,SSE,165,6.0,8.0,28,0.00,,---,0.00,VWS V14.00,2013-01-17 22:17:00,
2013-01-17 15:22:00,46.1,15.6,30.14,SSE,163,1.0,8.0,29,0.00,,---,0.00,VWS V14.00,2013-01-17 22:22:00,
2013-01-17 15:27:00,45.6,16.0,30.14,South,182,3.0,4.0,30,0.00,,---,0.00,VWS V14.00,2013-01-17 22:27:00,
2013-01-17 15:32:00,45.4,15.8,30.14,SSE,164,4.0,8.0,30,0.00,,---,0.00,VWS V14.00,2013-01-17 22:32:00,
2013-01-17 15:37:00,45.4,16.5,30.14,South,174,4.0,6.0,31,0.00,,---,0.00,VWS V14.00,2013-01-17 22:37:00,
2013-01-17 15:42:00,45.2,16.4,30.14,South,182,5.0,7.0,31,0.00,,---,0.00,VWS V14.00,2013-01-17 22:42:00,
2013-01-17 15:47:00,45.0,16.9,30.14,South,175,6.0,7.0,32,0.00,,---,0.00,VWS V14.00,2013-01-17 22:47:00,
2013-01-17 15:52:00,45.0,16.9,30.14,South,190,4.0,7.0,32,0.00,,---,0.00,VWS V14.00,2013-01-17 22:52:00,
2013-01-17 15:57:00,44.9,16.8,30.14,South,190,4.0,5.0,32,0.00,,---,0.00,VWS V14.00,2013-01-17 22:57:00,
2013-01-17 16:02:00,44.7,17.4,30.14,South,190,5.0,5.0,33,0.00,,---,0.00,VWS V14.00,2013-01-17 23:02:00,
2013-01-17 16:07:00,44.5,17.2,30.14,South,190,4.0,4.0,33,0.00,,---,0.00,VWS V14.00,2013-01-17 23:07:00,
2013-01-17 16:12:00,44.4,17.8,30.14,South,190,2.0,6.0,34,0.00,,---,0.00,VWS V14.00,2013-01-17 23:12:00,
2013-01-17 16:17:00,44.1,18.2,30.14,South,191,4.0,4.0,35,0.00,,---,0.00,VWS V14.00,2013-01-17 23:17:00,
2013-01-17 16:22:00,44.0,18.8,30.14,SSW,194,3.0,5.0,36,0.00,,---,0.00,VWS V14.00,2013-01-17 23:22:00,
2013-01-17 16:27:00,43.9,18.7,30.14,SSW,194,3.0,3.0,36,0.00,,---,0.00,VWS V14.00,2013-01-17 23:27:00,
2013-01-17 16:32:00,43.9,18.7,30.14,SSW,194,4.0,6.0,36,0.00,,---,0.00,VWS V14.00,2013-01-17 23:32:00,
2013-01-17 16:37:00,43.7,18.5,30.14,SSW,197,4.0,4.0,36,0.00,,---,0.00,VWS V14.00,2013-01-17 23:37:00,
2013-01-17 16:43:00,43.4,18.9,30.14,SSW,197,2.0,5.0,37,0.00,,---,0.00,VWS V14.00,2013-01-17 23:43:00,
2013-01-17 16:48:00,43.1,18.6,30.14,SSW,198,4.0,4.0,37,0.00,,---,0.00,VWS V14.00,2013-01-17 23:48:00,
2013-01-17 16:53:00,42.8,19.0,30.14,SSW,192,3.0,4.0,38,0.00,,---,0.00,VWS V14.00,2013-01-17 23:53:00,
2013-01-17 16:58:00,42.5,18.7,30.14,SSW,192,0.0,2.0,38,0.00,,---,0.00,VWS V14.00,2013-01-17 23:58:00,
2013-01-17 17:03:00,41.8,18.7,30.14,SSW,192,0.0,2.0,39,0.00,,---,0.00,VWS V14.00,2013-01-18 00:03:00,
2013-01-17 17:08:00,41.6,19.1,30.14,SSW,192,0.0,0.0,40,0.00,,---,0.00,VWS V14.00,2013-01-18 00:08:00,
2013-01-17 17:13:00,41.0,19.7,30.15,SSW,192,0.0,0.0,42,0.00,,---,0.00,VWS V14.00,2013-01-18 00:13:00,
2013-01-17 17:18:00,40.3,21.2,30.14,SSW,192,0.0,0.0,46,0.00,,---,0.00,VWS V14.00,2013-01-18 00:18:00,
2013-01-17 17:23:00,39.7,21.6,30.14,SSW,194,1.0,2.0,48,0.00,,---,0.00,VWS V14.00,2013-01-18 00:23:00,
2013-01-17 17:29:00,38.8,21.3,30.14,SSW,194,0.0,0.0,49,0.00,,---,0.00,VWS V14.00,2013-01-18 00:29:00,
2013-01-17 17:34:00,38.3,21.3,30.15,SSW,194,0.0,0.0,50,0.00,,---,0.00,VWS V14.00,2013-01-18 00:34:00,
2013-01-17 17:39:00,38.1,21.6,30.15,SSW,200,0.0,2.0,51,0.00,,---,0.00,VWS V14.00,2013-01-18 00:39:00,
2013-01-17 17:44:00,38.1,22.0,30.14,SSW,200,0.0,2.0,52,0.00,,---,0.00,VWS V14.00,2013-01-18 00:44:00,
2013-01-17 17:49:00,38.2,22.6,30.14,SSW,200,0.0,2.0,53,0.00,,---,0.00,VWS V14.00,2013-01-18 00:49:00,
2013-01-17 17:54:00,38.2,22.6,30.14,SSW,202,0.0,2.0,53,0.00,,---,0.00,VWS V14.00,2013-01-18 00:54:00,
2013-01-17 17:59:00,38.3,22.7,30.14,SSW,202,0.0,1.0,53,0.00,,---,0.00,VWS V14.00,2013-01-18 00:59:00,
2013-01-17 18:04:00,38.2,21.7,30.14,SSW,202,0.0,2.0,51,0.00,,---,0.00,VWS V14.00,2013-01-18 01:04:00,
2013-01-17 18:09:00,37.7,21.7,30.14,SSW,204,0.0,3.0,52,0.00,,---,0.00,VWS V14.00,2013-01-18 01:09:00,
2013-01-17 18:14:00,37.2,20.8,30.14,SSW,207,0.0,4.0,51,0.00,,---,0.00,VWS V14.00,2013-01-18 01:14:00,
2013-01-17 18:19:00,36.7,20.3,30.14,WSW,252,0.0,2.0,51,0.00,,---,0.00,VWS V14.00,2013-01-18 01:19:00,
2013-01-17 18:24:00,36.5,20.6,30.14,WSW,257,0.0,4.0,52,0.00,,---,0.00,VWS V14.00,2013-01-18 01:24:00,
2013-01-17 18:30:00,37.2,20.8,30.15,WNW,282,3.0,5.0,51,0.00,,---,0.00,VWS V14.00,2013-01-18 01:30:00,
2013-01-17 18:35:00,37.8,20.8,30.15,WNW,288,2.0,5.0,50,0.00,,---,0.00,VWS V14.00,2013-01-18 01:35:00,
2013-01-17 18:40:00,38.2,20.7,30.15,WNW,293,0.0,4.0,49,0.00,,---,0.00,VWS V14.00,2013-01-18 01:40:00,
2013-01-17 18:45:00,38.8,21.3,30.14,WNW,293,0.0,4.0,49,0.00,,---,0.00,VWS V14.00,2013-01-18 01:45:00,
2013-01-17 18:50:00,38.6,20.6,30.15,WNW,296,0.0,2.0,48,0.00,,---,0.00,VWS V14.00,2013-01-18 01:50:00,
2013-01-17 18:55:00,37.9,20.0,30.15,WNW,296,2.0,3.0,48,0.00,,---,0.00,VWS V14.00,2013-01-18 01:55:00,
2013-01-17 19:00:00,37.7,19.8,30.14,WNW,296,0.0,1.0,48,0.00,,---,0.00,VWS V14.00,2013-01-18 02:00:00,
2013-01-17 19:05:00,37.4,19.5,30.14,WNW,296,0.0,1.0,48,0.00,,---,0.00,VWS V14.00,2013-01-18 02:05:00,
2013-01-17 19:10:00,36.6,19.3,30.14,WNW,296,0.0,0.0,49,0.00,,---,0.00,VWS V14.00,2013-01-18 02:10:00,
2013-01-17 19:15:00,36.1,19.3,30.14,WNW,296,0.0,0.0,50,0.00,,---,0.00,VWS V14.00,2013-01-18 02:15:00,
2013-01-17 19:20:00,36.6,18.8,30.14,WNW,294,2.0,4.0,48,0.00,,---,0.00,VWS V14.00,2013-01-18 02:20:00,
2013-01-17 19:25:00,36.8,19.0,30.14,WNW,294,0.0,4.0,48,0.00,,---,0.00,VWS V14.00,2013-01-18 02:25:00,
2013-01-17 19:30:00,37.2,19.3,30.14,WNW,293,4.0,5.0,48,0.00,,---,0.00,VWS V14.00,2013-01-18 02:30:00,
2013-01-17 19:35:00,37.4,19.5,30.13,West,281,6.0,7.0,48,0.00,,---,0.00,VWS V14.00,2013-01-18 02:35:00,
2013-01-17 19:41:00,37.4,19.5,30.13,WNW,284,0.0,7.0,48,0.00,,---,0.00,VWS V14.00,2013-01-18 02:41:00,
2013-01-17 19:46:00,36.7,19.4,30.13,WNW,284,0.0,0.0,49,0.00,,---,0.00,VWS V14.00,2013-01-18 02:46:00,
2013-01-17 19:51:00,36.9,19.1,30.13,WNW,284,0.0,4.0,48,0.00,,---,0.00,VWS V14.00,2013-01-18 02:51:00,
2013-01-17 19:56:00,36.6,18.8,30.13,WNW,284,0.0,0.0,48,0.00,,---,0.00,VWS V14.00,2013-01-18 02:56:00,
2013-01-17 20:01:00,36.6,18.8,30.13,WNW,284,0.0,0.0,48,0.00,,---,0.00,VWS V14.00,2013-01-18 03:01:00,
2013-01-17 20:06:00,36.5,18.2,30.13,WNW,284,0.0,0.0,47,0.00,,---,0.00,VWS V14.00,2013-01-18 03:06:00,
2013-01-17 20:11:00,36.8,18.5,30.13,WNW,284,0.0,0.0,47,0.00,,---,0.00,VWS V14.00,2013-01-18 03:11:00,
2013-01-17 20:16:00,36.6,17.8,30.13,WNW,284,0.0,0.0,46,0.00,,---,0.00,VWS V14.00,2013-01-18 03:16:00,
2013-01-17 20:21:00,36.1,17.8,30.12,WNW,284,0.0,3.0,47,0.00,,---,0.00,VWS V14.00,2013-01-18 03:21:00,
2013-01-17 20:26:00,36.6,18.3,30.12,WNW,284,0.0,0.0,47,0.00,,---,0.00,VWS V14.00,2013-01-18 03:26:00,
2013-01-17 20:31:00,36.6,18.3,30.12,WNW,284,0.0,2.0,47,0.00,,---,0.00,VWS V14.00,2013-01-18 03:31:00,
2013-01-17 20:36:00,36.2,17.9,30.12,WNW,284,0.0,0.0,47,0.00,,---,0.00,VWS V14.00,2013-01-18 03:36:00,
2013-01-17 20:42:00,36.2,17.4,30.12,WNW,284,0.0,3.0,46,0.00,,---,0.00,VWS V14.00,2013-01-18 03:42:00,
2013-01-17 20:47:00,36.0,17.2,30.12,WNW,284,0.0,0.0,46,0.00,,---,0.00,VWS V14.00,2013-01-18 03:47:00,
2013-01-17 20:52:00,36.7,17.9,30.12,WNW,284,0.0,2.0,46,0.00,,---,0.00,VWS V14.00,2013-01-18 03:52:00,
2013-01-17 20:57:00,37.0,17.6,30.12,WNW,284,0.0,0.0,45,0.00,,---,0.00,VWS V14.00,2013-01-18 03:57:00,
2013-01-17 21:02:00,37.1,17.2,30.12,North,355,0.0,4.0,44,0.00,,---,0.00,VWS V14.00,2013-01-18 04:02:00,
2013-01-17 21:07:00,36.4,17.1,30.12,North,360,0.0,1.0,45,0.00,,---,0.00,VWS V14.00,2013-01-18 04:07:00,
2013-01-17 21:12:00,36.0,17.2,30.12,North,360,2.0,3.0,46,0.00,,---,0.00,VWS V14.00,2013-01-18 04:12:00,
2013-01-17 21:17:00,36.0,17.2,30.11,North,360,0.0,3.0,46,0.00,,---,0.00,VWS V14.00,2013-01-18 04:17:00,
2013-01-17 21:22:00,35.6,16.9,30.11,North,360,0.0,3.0,46,0.00,,---,0.00,VWS V14.00,2013-01-18 04:22:00,
2013-01-17 21:27:00,35.1,16.9,30.11,WNW,302,4.0,5.0,47,0.00,,---,0.00,VWS V14.00,2013-01-18 04:27:00,
2013-01-17 21:32:00,35.6,15.9,30.11,NNW,328,4.0,5.0,44,0.00,,---,0.00,VWS V14.00,2013-01-18 04:32:00,
2013-01-17 21:37:00,35.4,15.7,30.11,NNW,333,0.0,2.0,44,0.00,,---,0.00,VWS V14.00,2013-01-18 04:37:00,
2013-01-17 21:42:00,35.0,15.3,30.11,WNW,290,6.0,6.0,44,0.00,,---,0.00,VWS V14.00,2013-01-18 04:42:00,
2013-01-17 21:47:00,36.0,15.7,30.11,WNW,299,0.0,4.0,43,0.00,,---,0.00,VWS V14.00,2013-01-18 04:47:00,
2013-01-17 21:52:00,35.9,15.1,30.11,NW,308,7.0,8.0,42,0.00,,---,0.00,VWS V14.00,2013-01-18 04:52:00,
2013-01-17 21:58:00,35.9,15.1,30.11,NW,323,1.0,2.0,42,0.00,,---,0.00,VWS V14.00,2013-01-18 04:58:00,
2013-01-17 22:00:00,36.1,14.7,30.10,NW,313,6.0,8.0,41,0.00,,---,0.00,VWS V14.00,2013-01-18 05:00:00,
2013-01-17 22:01:00,36.1,14.7,30.10,NW,311,5.0,8.0,41,0.00,,---,0.00,VWS V14.00,2013-01-18 05:01:00,
2013-01-17 22:04:00,36.8,15.3,30.10,WNW,290,6.0,8.0,41,0.00,,---,0.00,VWS V14.00,2013-01-18 05:04:00,
2013-01-17 22:06:00,37.0,14.9,30.10,NW,313,7.0,8.0,40,0.00,,---,0.00,VWS V14.00,2013-01-18 05:06:00,
2013-01-17 22:11:00,37.5,14.8,30.10,WNW,296,3.0,8.0,39,0.00,,---,0.00,VWS V14.00,2013-01-18 05:11:00,
2013-01-17 22:16:00,37.2,13.9,30.09,WNW,293,7.0,7.0,38,0.00,,---,0.00,VWS V14.00,2013-01-18 05:16:00,
2013-01-17 22:21:00,37.6,14.3,30.09,West,281,8.0,9.0,38,0.00,,---,0.00,VWS V14.00,2013-01-18 05:21:00,
2013-01-17 22:26:00,37.6,13.7,30.09,WNW,289,4.0,6.0,37,0.00,,---,0.00,VWS V14.00,2013-01-18 05:26:00,
2013-01-17 22:31:00,37.2,13.9,30.09,NNW,339,3.0,6.0,38,0.00,,---,0.00,VWS V14.00,2013-01-18 05:31:00,
2013-01-17 22:36:00,37.4,14.1,30.09,NW,307,0.0,0.0,38,0.00,,---,0.00,VWS V14.00,2013-01-18 05:36:00,
2013-01-17 22:41:00,37.4,14.1,30.08,NW,314,5.0,7.0,38,0.00,,---,0.00,VWS V14.00,2013-01-18 05:41:00,
2013-01-17 22:46:00,37.9,14.0,30.08,WNW,295,2.0,4.0,37,0.00,,---,0.00,VWS V14.00,2013-01-18 05:46:00,
2013-01-17 22:52:00,37.0,13.2,30.08,WNW,295,0.0,4.0,37,0.00,,---,0.00,VWS V14.00,2013-01-18 05:52:00,
2013-01-17 22:57:00,37.0,13.8,30.09,West,276,8.0,9.0,38,0.00,,---,0.00,VWS V14.00,2013-01-18 05:57:00,
2013-01-17 23:02:00,36.9,14.3,30.08,West,263,2.0,9.0,39,0.00,,---,0.00,VWS V14.00,2013-01-18 06:02:00,
2013-01-17 23:07:00,38.0,14.1,30.08,West,263,0.0,0.0,37,0.00,,---,0.00,VWS V14.00,2013-01-18 06:07:00,
2013-01-17 23:12:00,37.7,14.4,30.08,West,263,0.0,4.0,38,0.00,,---,0.00,VWS V14.00,2013-01-18 06:12:00,
2013-01-17 23:17:00,36.9,13.7,30.08,WNW,283,0.0,0.0,38,0.00,,---,0.00,VWS V14.00,2013-01-18 06:17:00,
2013-01-17 23:22:00,36.6,14.0,30.08,WNW,283,0.0,0.0,39,0.00,,---,0.00,VWS V14.00,2013-01-18 06:22:00,
2013-01-17 23:27:00,37.1,14.4,30.07,WNW,282,0.0,1.0,39,0.00,,---,0.00,VWS V14.00,2013-01-18 06:27:00,
2013-01-17 23:32:00,37.4,14.1,30.07,WNW,282,0.0,2.0,38,0.00,,---,0.00,VWS V14.00,2013-01-18 06:32:00,
2013-01-17 23:37:00,37.2,13.9,30.07,West,276,0.0,0.0,38,0.00,,---,0.00,VWS V14.00,2013-01-18 06:37:00,
2013-01-17 23:43:00,36.8,14.8,30.07,West,260,3.0,4.0,40,0.00,,---,0.00,VWS V14.00,2013-01-18 06:43:00,
2013-01-17 23:48:00,37.3,14.0,30.06,West,260,0.0,0.0,38,0.00,,---,0.00,VWS V14.00,2013-01-18 06:48:00,
2013-01-17 23:53:00,37.6,13.7,30.06,West,261,0.0,3.0,37,0.00,,---,0.00,VWS V14.00,2013-01-18 06:53:00,
2013-01-17 23:58:00,38.3,13.7,30.06,SSW,211,0.0,0.0,36,0.00,,---,0.00,VWS V14.00,2013-01-18 06:58:00,